Retour au catalogue

SL-8 R/B

ActifPO
NORAD 36520·ROCKET BODY·🇷🇺 Russia

Lancé Apr 27, 2010 depuis Plesetsk Cosmodrome

Loading…

Prochains Passages (prochaines 24 heures)

TLE

FraisSource: Space-Track

Époque: Sep 14, 2026, 04:44 UTC

1 36520U 10017B   26257.19740141  .00000049  00000-0  36869-4 0  9993
2 36520  82.9638 174.1414 0025123 216.8526 298.0665 13.73082220820812

Suivez SL-8 R/B en temps réel avec AllMySat

Download on the App Store